TimeEDT,TemperatureF,Dew PointF,Humidity,Sea Level PressureIn,VisibilityMPH,Wind Direction,Wind SpeedMPH,Gust SpeedMPH,PrecipitationIn,Events,Conditions,WindDirDegrees,DateUTC
12:51 AM,72.0,60.1,66,29.96,10.0,SSW,8.1,-,N/A,,Mostly Cloudy,200,2013-05-29 04:51:00
1:51 AM,73.0,59.0,61,29.97,10.0,SW,13.8,18.4,N/A,,Overcast,220,2013-05-29 05:51:00
2:51 AM,72.0,59.0,64,29.96,10.0,SW,10.4,20.7,N/A,,Mostly Cloudy,220,2013-05-29 06:51:00
3:51 AM,73.0,57.9,59,29.95,10.0,SW,11.5,-,N/A,,Mostly Cloudy,220,2013-05-29 07:51:00
4:51 AM,70.0,57.9,65,29.96,10.0,SSW,10.4,-,N/A,,Mostly Cloudy,210,2013-05-29 08:51:00
5:51 AM,69.1,57.0,65,29.98,10.0,SW,11.5,-,N/A,,Mostly Cloudy,220,2013-05-29 09:51:00
6:51 AM,70.0,57.0,63,30.01,10.0,SSW,10.4,-,N/A,,Mostly Cloudy,210,2013-05-29 10:51:00
7:51 AM,72.0,57.9,61,30.01,10.0,SW,11.5,-,N/A,,Mostly Cloudy,220,2013-05-29 11:51:00
8:51 AM,73.0,59.0,61,30.02,10.0,SW,12.7,-,N/A,,Overcast,220,2013-05-29 12:51:00
9:51 AM,73.9,60.1,62,30.02,10.0,SW,11.5,-,N/A,,Overcast,230,2013-05-29 13:51:00
10:51 AM,75.0,60.1,60,30.02,10.0,SW,10.4,-,N/A,,Overcast,220,2013-05-29 14:51:00
11:51 AM,79.0,62.1,56,30.02,10.0,SSW,15.0,19.6,N/A,,Mostly Cloudy,210,2013-05-29 15:51:00
12:51 PM,80.1,62.1,54,30.03,10.0,SSW,11.5,-,N/A,,Mostly Cloudy,210,2013-05-29 16:51:00
1:51 PM,82.0,61.0,49,30.02,10.0,SW,15.0,26.5,N/A,,Mostly Cloudy,220,2013-05-29 17:51:00
2:51 PM,84.0,61.0,46,30.02,10.0,SW,16.1,26.5,N/A,,Mostly Cloudy,220,2013-05-29 18:51:00
3:51 PM,84.9,62.1,46,30.03,10.0,SW,17.3,25.3,N/A,,Mostly Cloudy,220,2013-05-29 19:51:00
4:51 PM,84.0,60.1,44,30.02,10.0,WSW,17.3,21.9,N/A,,Mostly Cloudy,240,2013-05-29 20:51:00
5:51 PM,82.9,59.0,44,30.02,10.0,SW,13.8,-,N/A,,Mostly Cloudy,220,2013-05-29 21:51:00
6:51 PM,82.9,59.0,44,30.02,10.0,WSW,12.7,-,N/A,,Scattered Clouds,240,2013-05-29 22:51:00
7:51 PM,80.1,60.1,50,30.03,10.0,SSW,9.2,16.1,N/A,,Scattered Clouds,210,2013-05-29 23:51:00
8:51 PM,77.0,59.0,54,30.03,10.0,SSW,6.9,-,N/A,,Scattered Clouds,200,2013-05-30 00:51:00
9:51 PM,73.9,57.9,57,30.03,10.0,South,5.8,-,N/A,,Partly Cloudy,180,2013-05-30 01:51:00
10:51 PM,73.0,57.9,59,30.05,10.0,South,5.8,-,N/A,,Partly Cloudy,190,2013-05-30 02:51:00
11:51 PM,72.0,57.9,61,30.06,10.0,SSW,5.8,-,N/A,,Partly Cloudy,200,2013-05-30 03:51:00